sat.trackr.live / text

‹ back to catalog

STARLINK-36140

NORAD 67034 · 2025-294E

PAYLOAD ACTIVE UNKNOWN

§ Identity

Operator
Country
US
Launch date
2025-12-11
Launch site
AFETR
Launch vehicle
Mass (kg)
RCS (m²)

Purposes: comms

External: N2YO · Heavens-Above · Gunter

§ Orbital elements

Epoch: 2026-05-24T18:52:36.964416Z

Period
94.27 min
Inclination
43.0004°
Eccentricity
0.0001476
Mean motion
15.27596260 rev/d
Perigee alt
482.0 km
Apogee alt
484.0 km
Semi-major
6,861.1 km
B*
6.9116e-4
RAAN
328.6334°
Arg perigee
269.1469°
Mean anomaly
90.9214°
Rev number
2,643

§ Raw data

STARLINK-361401 67034U 25294E   26144.78653894  .00018815  00000+0  69116-3 0  99972 67034  43.0004 328.6334 0001476 269.1469  90.9214 15.27596260 26430

JSON: /api/v1/satellites/67034 · /tle

For live sub-satellite position, see the globe view (requires WebGL).

§ Visibility from observer

Set your observer location to see the next 7 days of passes ≥ 10°. The values pass through the URL so the page stays shareable.

No JS? Fill the form by hand. The geolocation button needs JavaScript.